Weather in Kol'chugino

Russia / Republic of Crimea     44°56′45″N   33°47′37″E
temp.,
°C
wind,
m/s
gust,
m/s
humid.,
%
clouds,
%
prec.,
mm/h
press.,
hPa
HPBL,
m
17 september, fri
fri1700:00+14ene22450 0.0 101819
03:00+13e22450 0.0 101816
06:00+13e22470 0.0 101719
09:00+19ene22340 0.0 1017291
12:00+23nw22245 0.0 10161392
15:00+24w4326100 0.0 10151307
18:00+20wsw4540100 0.0 1014216
21:00+16sse225085 0.0 101523
18 september, sat
sat1800:00+15se2252100 0.0 101424
03:00+16sse3351100 0.0 101357
06:00+15se2249100 0.0 101223
09:00+20se223521 0.0 1012230
12:00+24w4432100 0.0 1012886
15:00+22sw6846100 0.0 1011658
18:00+20sse124786 0.0 101143
21:00+17se115440 0.0 101119
19 september, sun
sun1900:00+17se2255100 0.0 101130
03:00+17se226290 0.0 101022
06:00+16sse227111 0.0 101017
09:00+21ssw36605 0.0 1011451
12:00+24wsw55610 0.0 10111049
15:00+24w66525 0.0 1011945
18:00+21wsw457098 0.1 1011465
21:00+18ssw33875 0.1 101245
20 september, mon
mon2000:00+17sse33884 0.0 101233
03:00+16sse337868 0.0 101227
06:00+17s3367100 0.0 101262
09:00+20s2364100 0.7 1012168
12:00+19s7978100 1.3 1013530
15:00+22s2262100 2.6 1011467
18:00+20nne237698 1.4 101193
21:00+18se118552 1.6 101116
21 september, tue
tue2100:00+17nne359357 0.5 1013222
03:00+15nne3494100 0.9 1013213
06:00+15nne4689100 0.1 1014344
09:00+17ne466685 0.1 1016619
12:00+20nne5545100 0.0 10161092
15:00+21n4336100 0.0 10161360
18:00+20n454198 0.0 1017293
21:00+15ne355799 0.0 101897